Find OneWeb SL0643

NORAD ID: 55807 Int'l Des: 2023-029 Owner: ONEWEBN Country: UK Constellation: oneweb operational
LEOCIRCULARPOLARONEWEB_TYPE

Live Position

Loading 3D Globe...

About OneWeb SL0643

Description loading...

Upcoming Passes

Passes for default location (London). Set your location on the main map for personalized predictions.

Altitude History

Loading altitude history...

Two-Line Element Set

1 55807U 23029M 26119.50484366 .00000039 00000-0 70351-4 0 9998
2 55807 87.8916 299.4497 0001542 68.9223 291.2072 13.14502186152992
Epoch: Apr 29, 2026 • Age: 12 hours

Current Status

Altitude 1221.0 km
Velocity 7.24 km/s
Sub-Earth Point -37.34°S, 99.68°W
Launch Date Mar 9, 2023
Age 3.1 years
Type internet

Technical Details

Classification Payload
Mass 148.00 kg
Dry Mass 140.00 kg
Total Mass 148.00 kg
Length 1.30 m
Diameter 1.00 m
Span 5.00 m
Shape Trapezoid+2 pan
Manufacturer ONEWUS
Bus Type ARROW
Phase Status In Orbit
Owner/State ONEWEBN/UK

Most Searched